sat.trackr.live / text

‹ back to catalog

STARLINK-32641

NORAD 62236 · 2024-231U

PAYLOAD ACTIVE UNKNOWN

§ Identity

Operator
Country
US
Launch date
2024-12-05
Launch site
AFWTR
Launch vehicle
Mass (kg)
RCS (m²)

Purposes: comms

External: N2YO · Heavens-Above · Gunter

§ Orbital elements

Epoch: 2026-09-21T16:11:18.502080Z

Period
93.85 min
Inclination
53.1598°
Eccentricity
0.0001036
Mean motion
15.34401149 rev/d
Perigee alt
462.0 km
Apogee alt
463.4 km
Semi-major
6,840.8 km
B*
4.6419e-4
RAAN
15.8717°
Arg perigee
78.7094°
Mean anomaly
281.4025°
Rev number
10,195

§ Raw data

STARLINK-326411 62236U 24231U   26264.67451970  .00015340  00000+0  46419-3 0  99992 62236  53.1598  15.8717 0001036  78.7094 281.4025 15.34401149101956

JSON: /api/v1/satellites/62236 · /tle

For live sub-satellite position, see the globe view (requires WebGL).

§ Visibility from observer

Set your observer location to see the next 7 days of passes ≥ 10°. The values pass through the URL so the page stays shareable.

No JS? Fill the form by hand. The geolocation button needs JavaScript.